Location: Casco Millpond
(44.5581°N, 87.6111°W)
Time: 22:54:49
(UTC+00:00)

UNK - Pass Details

Date: 16 January 2026
Orbit: 654 x 673 km, 98.4° (Epoch: 13 February)

Event Time Altitude Azimuth Distance (km) Brightness Sun altitude
Rises 23:02:26 0° 16° (NNE) 2,988 6.7 -4.7°
Reaches altitude 10° 23:04:41 10° 19° (NNE) 2,072 5.9 -5.1°
Maximum altitude 23:09:11 67° 102° (ESE) 711 3.7 -5.8°
Drops below altitude 10° 23:13:39 10° 185° (S) 2,060 6.6 -6.6°
Sets 23:15:52 0° 188° (S) 2,968 7.5 -6.9°
